Miscellaneous Local Product
Issued by NWS North Platte, NE

Home | Current Version | Previous Version | Text Only | Print | Product List | Glossary On
Versions: 1 2 3 4 5 6 7 8 9 10 11 12 13 14 15 16 17 18 19 20 21 22 23 24 25 26 27 28 29 30 31 32 33 34 35 36 37 38 39 40 41 42 43 44 45 46 47 48 49 50
000
AXUS43 KLBF 190810
MISLBF


WESTERN AND NORTH CENTRAL NEBRASKA HOURLY WEATHER ROUNDUP
NATIONAL WEATHER SERVICE NORTH PLATTE NE
200 AM CST FRI DEC 19 2014

***STATIONS NOT REPORTING VARIABLES SUCH AS SKY/WEATHER OR
PRESSURE ARE PROVIDED BY THE NEBRASKA DEPARTMENT OF
ROADS...RAWS...AND APRS NETWORKS...AND ARE NOT UNDER
NATIONAL WEATHER SERVICE QUALITY CONTROL***

...OBSERVATIONS IN AND NEAR THE EASTERN PANHANDLE OF NEBRASKA...

CITY           SKY/WX    TMP DP  RH WIND       PRES   REMARKS
PINE RIDGE     CLEAR     26  17  68 CALM      30.03F
CHADRON        PTCLDY    13   9  84 W3        30.05F
ALLIANCE       PTCLDY     6   3  87 W9        30.05F WCI  -8
SIDNEY         PTCLDY    21  15  78 NW14      30.07F WCI   8
WHITECLAY        N/A     23  15  71 CALM        N/A
CRESCENT LAKE    N/A     18  14  85 CALM        N/A
LISCO            N/A     13   8  81 CALM        N/A
BIG SPRINGS      N/A     21  19  91 W7          N/A  WCI  12
$$

...OBSERVATIONS IN NORTH CENTRAL NEBRASKA...

CITY           SKY/WX    TMP DP  RH WIND       PRES   REMARKS
VALENTINE      CLEAR     12   9  87 SW7       30.05F WCI   1
THEDFORD       PTCLDY    16  14  92 CALM      30.07F
AINSWORTH      PTCLDY    13  11  91 SW3       30.05F
O`NEILL        CLOUDY    29  28  98 SW6       30.11F FOG     WCI  23
BROKEN BOW     FOG       26  25  96 SW8       30.10F VSB 1   WCI  18
BROWNLEE         N/A     17  15  91 CALM        N/A
SPRINGVIEW       N/A     10   7  89 CALM        N/A
BREWSTER         N/A     23  22  99 CALM        N/A
ROSE             N/A     27  27 100 MISG        N/A
SARGENT          N/A     26  25  96 SW3         N/A
COMSTOCK         N/A     32  31  94 SW5         N/A  WCI  28
CHAMBERS         N/A     28  27  95 CALM        N/A
$$

...OBSERVATIONS IN SOUTHWEST NEBRASKA AND FAR NORTHEAST COLORADO...

CITY           SKY/WX    TMP DP  RH WIND       PRES   REMARKS
WRAY           FAIR      19  17  90 W7        30.11S WCI  10
IMPERIAL       PTCLDY    19  15  84 CALM      30.10F FOG
OGALLALA       MOCLDY    15  14  92 W3        30.09S
NORTH PLATTE   MOCLDY    15  10  80 CALM      30.11S HAZE
MCCOOK         FOG       25  25 100 S8        30.14F VSB 1/4 WCI  16
LEXINGTON      CLOUDY    29  27  93 SW7       30.13F FOG     WCI  22
PAXTON           N/A     18  16  92 CALM        N/A
BRADY            N/A     22  20  92 CALM        N/A
GOTHENBURG       N/A     26  25  95 SW3         N/A
CALLAWAY         N/A     23  22  96 CALM        N/A
$$

...NORTH PLATTE AREA...

CITY           SKY/WX    TMP DP  RH WIND       PRES   REMARKS
AIRPORT        MOCLDY    15  10  80 CALM      30.11S HAZE
DOWNTOWN         N/A     18  16  91 CALM        N/A
$$

...SOME WEATHER OBSERVATIONS FROM AROUND THE REGION...

CITY           SKY/WX    TMP DP  RH WIND       PRES   REMARKS
DENVER         MOCLDY    27  24  89 W7        30.07F FOG     WCI  19
LARAMIE        PTCLDY    12   6  77 W6        30.04F WCI   3
CHEYENNE       CLEAR     23  11  60 SW8       30.04F WCI  14
SCOTTSBLUFF    CLEAR      6   3  87 N3        30.06F
RAPID CITY     CLEAR     23  16  74 NW6       29.98F WCI  16
PIERRE         FOG       12  10  92 CALM      30.04S VSB 1/4
WINNER         FAIR      26  19  74 SW3       30.05F
SIOUX FALLS    CLOUDY    28  25  88 S7        30.17S WCI  21
OMAHA          CLOUDY    31  28  89 S6        30.24F WCI  25
GRAND ISLAND   CLOUDY    29  25  85 SW10      30.18S WCI  20
KANSAS CITY    CLOUDY    30  29  96 CALM      30.25S FOG
WICHITA        CLOUDY    32  28  85 NE3       30.24S
HAYS           CLOUDY    32  25  74 S5        30.18F WCI  27
LIBERAL        CLOUDY    36  30  80 CALM      30.18S
GOODLAND       PTCLDY    24  20  84 W6        30.11F WCI  17
$$



USA.gov is the U.S. government's official web portal to all federal, state and local government web resources and services.